Home > Weather > Luxembourg > Past weeks

Flag for Luxembourg Weather for the Past 2 Weeks in Luxembourg, Luxembourg

Now
52 °F

Passing clouds.


Feels Like: 48 °F
Forecast: 47 / 71 °F
Wind: 10 mph from East

Location: Luxembourg Airport

Current Time: May 5, 2016 at 10:45:29 AM

Latest Report: May 5, 2016 at 9:50 AM


Visibility: N/A

Pressure: 30.24 "Hg

Humidity: 54%

Dew Point: 36 °F

Location of LuxembourgLocation

Historic Weather in Luxembourg — Graph

°F

Luxembourg Temperature Yesterday

Maximum temperature yesterday: 59 °F (at 3:50 PM)
Minimum temperature yesterday: 37 °F (at 6:50 AM)
Average temperature yesterday: 50 °F

High & Low Weather Summary for the Past Weeks

 TemperatureHumidityPressure
High70 °F (Apr 21, 4:20 PM)100% (Apr 23, 7:20 AM)30.39 "Hg (Apr 23, 7:20 AM)
Low28 °F (Apr 28, 4:50 AM)24% (Apr 21, 6:20 PM)29.59 "Hg (Apr 25, 11:20 PM)
Average46 °F68%30.03 "Hg
* Reported Apr 20 9:20 AM — May 5 9:20 AM, Luxembourg, Weather by CustomWeather, © 2016

Note: Actual official high and low records may vary slightly from our data, if they occured in-between our weather recording intervals... More about our weather records

Advertising

Luxembourg Weather History for the Previous 24 Hours

Scroll right to see more
 ConditionsComfort  
Time TempWeatherWind HumidityBarometerVisibility
9:20 AM
Thu, May 5
50 °FPassing clouds.9 mph54%30.24 "HgN/A
8:50 AM48 °FSunny.9 mph54%30.24 "Hg10 mi
8:20 AM46 °FSunny.9 mph57%30.24 "Hg10 mi
7:50 AM45 °FPassing clouds.9 mph57%30.24 "HgN/A
7:20 AM45 °FSunny.10 mph57%30.24 "Hg10 mi
6:50 AM43 °FClear.9 mph57%30.24 "Hg10 mi
6:20 AM43 °FClear.10 mph57%30.24 "Hg10 mi
5:50 AM39 °FClear.10 mph65%30.27 "Hg10 mi
5:20 AM41 °FClear.10 mph61%30.27 "Hg10 mi
4:50 AM43 °FClear.9 mph57%30.27 "Hg10 mi
4:20 AM45 °FQuite cool.10 mph53%30.27 "HgN/A
3:50 AM45 °FQuite cool.10 mph53%30.27 "HgN/A
3:20 AM45 °FQuite cool.9 mph53%30.27 "HgN/A
2:50 AM45 °FQuite cool.8 mph53%30.27 "HgN/A
2:20 AM45 °FQuite cool.8 mph57%30.27 "HgN/A
1:50 AM46 °FClear.7 mph53%30.27 "Hg10 mi
1:20 AM46 °FClear.8 mph53%30.27 "Hg10 mi
12:50 AM46 °FClear.6 mph53%30.30 "Hg10 mi
12:20 AM46 °FClear.5 mph53%30.30 "Hg10 mi
11:50 PM
Wed, May 4
48 °FClear.5 mph50%30.30 "Hg10 mi
11:20 PM48 °FPassing clouds.6 mph50%30.30 "HgN/A
10:50 PM48 °FClear.6 mph50%30.30 "Hg10 mi
10:20 PM50 °FClear.6 mph43%30.30 "Hg10 mi
9:50 PM52 °FPassing clouds.8 mph41%30.30 "HgN/A
9:20 PM54 °FPassing clouds.7 mph38%30.27 "HgN/A
8:50 PM54 °FSunny.8 mph38%30.27 "Hg10 mi
8:20 PM55 °FPassing clouds.8 mph33%30.30 "HgN/A
7:50 PM57 °FSunny.8 mph31%30.30 "Hg10 mi
7:20 PM57 °FPassing clouds.6 mph31%30.30 "HgN/A
6:50 PM57 °FPassing clouds.8 mph33%30.30 "HgN/A
6:20 PM57 °FPassing clouds.8 mph33%30.30 "HgN/A
5:50 PM59 °FPassing clouds.5 mph31%30.30 "HgN/A
5:20 PM59 °FPassing clouds.8 mph31%30.30 "HgN/A
4:50 PM57 °FSunny.3 mph31%30.30 "Hg10 mi
4:20 PM57 °FSunny.6 mph36%30.33 "Hg10 mi
3:50 PM59 °FSunny.5 mph34%30.33 "Hg10 mi
3:20 PM57 °FSunny.5 mph33%30.33 "Hg10 mi
2:50 PM57 °FPassing clouds.7 mph33%30.33 "HgN/A
2:20 PM55 °FSunny.3 mph31%30.33 "Hg10 mi
1:50 PM55 °FSunny.6 mph36%30.36 "Hg10 mi
1:20 PM55 °FSunny.7 mph38%30.36 "Hg10 mi
12:50 PM54 °FPassing clouds.5 mph41%30.36 "HgN/A
12:20 PM54 °FPassing clouds.6 mph41%30.36 "HgN/A
11:50 AM54 °FPassing clouds.6 mph41%30.36 "HgN/A
11:20 AM52 °FPassing clouds.3 mph50%30.36 "HgN/A
10:50 AM52 °FPassing clouds.6 mph50%30.36 "HgN/A
10:20 AM50 °FPassing clouds.6 mph62%30.36 "HgN/A
Weather by CustomWeather, © 2016

See weather overviewHow to use our weather pages